sat.trackr.live / text

‹ back to catalog

STARLINK-3947

NORAD 52607 · 2022-052K

PAYLOAD ACTIVE UNKNOWN

§ Identity

Operator
Country
US
Launch date
2022-05-14
Launch site
AFETR
Launch vehicle
Mass (kg)
RCS (m²)

Purposes: comms

External: N2YO · Heavens-Above · Gunter

§ Orbital elements

Epoch: 2026-05-25T02:59:55.502880Z

Period
95.44 min
Inclination
53.2138°
Eccentricity
0.0001264
Mean motion
15.08836214 rev/d
Perigee alt
538.9 km
Apogee alt
540.6 km
Semi-major
6,917.9 km
B*
3.1697e-5
RAAN
300.9978°
Arg perigee
100.5252°
Mean anomaly
259.5882°
Rev number
22,231

§ Raw data

STARLINK-39471 52607U 22052K   26145.12494795  .00000217  00000+0  31697-4 0  99992 52607  53.2138 300.9978 0001264 100.5252 259.5882 15.08836214222315

JSON: /api/v1/satellites/52607 · /tle

For live sub-satellite position, see the globe view (requires WebGL).

§ Visibility from observer

Set your observer location to see the next 7 days of passes ≥ 10°. The values pass through the URL so the page stays shareable.

No JS? Fill the form by hand. The geolocation button needs JavaScript.